Flag for Kazakhstan Weather past 2 weeks in Qyzylorda, Kazakhstan

Now
91 °F

Sunny.


Feels Like: 87 °F
Forecast: 74 / 101 °F
Wind: 15 mph from East

Location: Kzyl-Orda

Current Time: Aug 20, 2014 at 11:38:39 AM

Latest Report: Aug 20, 2014 at 11:00 AM


Visibility: 10 mi

Pressure: 30.01 "Hg

Humidity: 15%

Dew point: 37 °F

Location of QyzylordaLocation

Historic Weather in Qyzylorda — Graph

°F

Qyzylorda temperature yesterday

Maximum temperature yesterday: 100 °F (at 4:30 PM)
Minimum temperature yesterday: 63 °F (at 6:30 AM)
Average temperature yesterday: 85 °F

Past Weeks' High & Low Weather Summary

 TemperatureHumidityPressure
High106 °F (Aug 12, 2:30 PM)77% (Aug 14, 7:00 AM)30.04 "Hg (Aug 14, 7:00 AM)
Low54 °F (Aug 17, 6:00 AM)8% (Aug 11, 5:30 PM)29.59 "Hg (Aug 13, 5:30 AM)
Average83 °F26%29.82 "Hg
* Reported Aug 5 10:00 AM — Aug 20 10:30 AM, Qyzylorda, Weather by CustomWeather, © 2014

Note: Actual official high and low records may vary slightly from our data, if they occured in-between our weather recording intervals... More about our weather records

Advertising

Qyzylorda weather history for previous 24 hours

 ConditionsComfort  
Time TempWeatherWind HumidityBarometerVisibility
10:30 AM
Aug 20
90 °FSunny.10 mph18%30.01 "Hg10 mi
10:00 AM84 °FSunny.10 mph22%30.01 "Hg10 mi
9:30 AM81 °FSunny.8 mph26%30.01 "Hg10 mi
9:00 AM77 °FSunny.6 mph28%30.01 "Hg10 mi
8:30 AM73 °FSunny.8 mph29%30.01 "Hg10 mi
8:00 AM70 °FSunny.6 mph33%30.01 "Hg10 mi
7:30 AM66 °FSunny.6 mph37%30.01 "Hg10 mi
7:00 AM64 °FSunny.6 mph43%29.98 "Hg10 mi
6:00 AM68 °FClear.6 mph35%29.98 "Hg10 mi
5:00 AM68 °FClear.6 mph38%29.98 "Hg10 mi
4:00 AM70 °FClear.6 mph33%29.98 "Hg10 mi
3:00 AM72 °FClear.6 mph29%29.98 "Hg10 mi
2:00 AM73 °FClear.6 mph29%30.01 "Hg10 mi
1:00 AM73 °FClear.6 mph29%30.01 "Hg10 mi
12:00 AM79 °FClear.6 mph23%30.01 "Hg10 mi
11:00 PM
Aug 19
81 °FClear.8 mph23%30.01 "Hg10 mi
10:00 PM84 °FClear.8 mph19%30.01 "Hg10 mi
9:00 PM86 °FClear.6 mph18%29.98 "Hg10 mi
8:00 PM93 °FSunny.10 mph13%29.98 "Hg10 mi
7:30 PM97 °FSunny.10 mph12%29.98 "Hg10 mi
7:00 PM97 °FSunny.13 mph12%29.98 "Hg10 mi
6:30 PM99 °FSunny.15 mph11%29.98 "Hg10 mi
6:00 PM99 °FSunny.17 mph10%29.98 "Hg10 mi
5:30 PM99 °FPassing clouds.15 mph11%29.98 "HgN/A
5:00 PM99 °FSunny.17 mph10%29.98 "Hg10 mi
4:30 PM100 °FPassing clouds.17 mph10%29.98 "HgN/A
4:00 PM99 °FPassing clouds.17 mph11%29.98 "HgN/A
3:30 PM99 °FSunny.20 mph11%30.01 "Hg10 mi
3:00 PM99 °FSunny.17 mph11%30.01 "Hg10 mi
2:30 PM99 °FSunny.20 mph10%30.01 "Hg10 mi
2:00 PM97 °FSunny.20 mph11%30.01 "Hg10 mi
1:30 PM97 °FPassing clouds.17 mph11%30.04 "HgN/A
1:00 PM97 °FPassing clouds.17 mph12%30.04 "HgN/A
12:30 PM95 °FPassing clouds.13 mph13%30.04 "HgN/A
12:00 PM93 °FPassing clouds.13 mph14%30.04 "HgN/A
11:30 AM91 °FSunny.10 mph16%30.04 "Hg10 mi
11:00 AM90 °FSunny.10 mph17%30.04 "Hg10 mi
Weather by CustomWeather, © 2014

See weather overviewHow to use our weather pages